Weather in Mersin

Turkey     36°47′22″N   34°37′22″E
temp.,
°C
wind,
m/s
gust,
m/s
humid.,
%
clouds,
%
prec.,
mm/h
press.,
hPa
HPBL,
m
9 december, thu
thu900:00+10nnw127863 0.0 1013147
03:00+10w117642 0.0 1015181
06:00+10nnw21800 0.0 1017107
09:00+11n11710 0.0 1019112
12:00+14ese11640 0.0 1020513
15:00+14se21644 0.0 1020600
18:00+12nw11742 0.0 1022131
21:00+12nnw22752 0.0 1024124
10 december, fri
fri1000:00+11n22740 0.0 102597
03:00+11n23730 0.0 102598
06:00+11n23715 0.0 1026108
09:00+12n23650 0.0 1026106
12:00+16ene345221 0.0 1026787
15:00+16ene335388 0.0 10241012
18:00+14nne3465100 0.0 1023233
21:00+13n3464100 0.0 1024112
11 december, sat
sat1100:00+13n4462100 0.0 1023107
03:00+13nne34595 0.0 1022134
06:00+12nne44580 0.0 1021118
09:00+13nne34540 0.0 1022114
12:00+17ene45446 0.0 1022675
15:00+18ene56450 0.0 1020794
18:00+15nne345913 0.0 1021175
21:00+14n345537 0.0 1022117
12 december, sun
sun1200:00+14nne34558 0.0 1022130
03:00+13nne34522 0.0 1022109
06:00+13nne345115 0.0 102293
09:00+14nne34500 0.0 102288
12:00+19ene4542100 0.0 1022545
15:00+19ene4543100 0.0 1020642
18:00+16nne3454100 0.0 1020113
21:00+15nne3349100 0.0 102082
13 december, mon
mon1300:00+15nne3446100 0.0 102089
03:00+15nne3444100 0.0 1019102
06:00+14nne3441100 0.0 101884
09:00+15nne3343100 0.0 101881
12:00+19ene453998 0.0 1016443
15:00+19e45405 0.0 1015738
18:00+16ne235498 0.0 1015154
21:00+14n22543 0.0 101577